Time,TemperatureF,DewpointF,PressureIn,WindDirection,WindDirectionDegrees,WindSpeedMPH,WindSpeedGustMPH,Humidity,HourlyPrecipIn,Conditions,Clouds,dailyrainin,SoftwareType,DateUTC
2013-04-24 00:01:00,39.7,37.0,29.75,SSW,202,0.0,0.0,87,0.00,,,0.00,Rainwise IP-100,2013-04-24 04:01:00,
2013-04-24 00:06:00,39.7,37.0,29.74,SSW,202,1.4,2.6,87,0.00,,,0.00,Rainwise IP-100,2013-04-24 04:06:00,
2013-04-24 00:11:00,39.8,37.0,29.73,SSW,202,1.9,3.3,87,0.00,,,0.00,Rainwise IP-100,2013-04-24 04:11:00,
2013-04-24 00:16:00,39.7,37.0,29.73,SSW,202,0.0,2.3,87,0.00,,,0.00,Rainwise IP-100,2013-04-24 04:16:00,
2013-04-24 00:21:00,39.7,37.0,29.73,SSW,202,0.0,1.2,87,0.00,,,0.00,Rainwise IP-100,2013-04-24 04:21:00,
2013-04-24 00:26:00,39.7,37.0,29.72,SSW,202,2.3,2.8,87,0.00,,,0.00,Rainwise IP-100,2013-04-24 04:26:00,
2013-04-24 00:31:00,39.6,37.0,29.72,South,180,0.0,2.6,88,0.00,,,0.00,Rainwise IP-100,2013-04-24 04:31:00,
2013-04-24 00:36:00,39.5,37.0,29.72,South,180,0.0,0.0,88,0.00,,,0.00,Rainwise IP-100,2013-04-24 04:36:00,
2013-04-24 00:41:00,39.6,37.0,29.71,South,180,0.0,0.0,88,0.00,,,0.00,Rainwise IP-100,2013-04-24 04:41:00,
2013-04-24 00:46:00,39.6,37.0,29.71,South,180,1.4,1.4,88,0.00,,,0.00,Rainwise IP-100,2013-04-24 04:46:00,
2013-04-24 00:51:00,39.6,37.0,29.71,South,180,0.0,1.6,88,0.00,,,0.00,Rainwise IP-100,2013-04-24 04:51:00,
2013-04-24 00:56:00,39.7,37.0,29.70,South,180,0.0,0.0,88,0.00,,,0.00,Rainwise IP-100,2013-04-24 04:56:00,
2013-04-24 01:02:00,39.7,37.0,29.70,South,180,0.0,1.4,89,0.00,,,0.00,Rainwise IP-100,2013-04-24 05:02:00,
2013-04-24 01:07:00,39.6,37.0,29.70,South,180,0.0,1.2,89,0.00,,,0.00,Rainwise IP-100,2013-04-24 05:07:00,
2013-04-24 01:12:00,39.6,37.0,29.70,South,180,0.0,0.0,89,0.00,,,0.00,Rainwise IP-100,2013-04-24 05:12:00,
2013-04-24 01:17:00,39.7,37.0,29.70,South,180,0.0,1.2,89,0.00,,,0.00,Rainwise IP-100,2013-04-24 05:17:00,
2013-04-24 01:22:00,39.7,37.0,29.69,South,180,0.0,0.0,89,0.00,,,0.00,Rainwise IP-100,2013-04-24 05:22:00,
2013-04-24 01:27:00,39.7,37.0,29.69,South,180,0.0,0.0,89,0.00,,,0.00,Rainwise IP-100,2013-04-24 05:27:00,
2013-04-24 01:32:00,39.6,37.0,29.68,SSE,157,0.0,1.2,89,0.00,,,0.00,Rainwise IP-100,2013-04-24 05:32:00,
2013-04-24 01:37:00,39.5,37.0,29.68,ENE,67,0.0,3.3,89,0.00,,,0.00,Rainwise IP-100,2013-04-24 05:37:00,
2013-04-24 01:42:00,39.5,37.0,29.69,SSW,202,2.6,4.0,89,0.00,,,0.00,Rainwise IP-100,2013-04-24 05:42:00,
2013-04-24 01:47:00,39.5,37.0,29.68,ESE,112,2.1,2.8,89,0.00,,,0.00,Rainwise IP-100,2013-04-24 05:47:00,
2013-04-24 01:52:00,39.5,37.0,29.68,ESE,112,0.0,2.3,89,0.00,,,0.00,Rainwise IP-100,2013-04-24 05:52:00,
2013-04-24 01:57:00,39.5,37.0,29.68,ESE,112,0.0,1.2,89,0.00,,,0.00,Rainwise IP-100,2013-04-24 05:57:00,
2013-04-24 02:02:00,39.5,38.0,29.67,ESE,112,0.0,0.0,90,0.00,,,0.00,Rainwise IP-100,2013-04-24 06:02:00,
2013-04-24 02:07:00,39.6,38.0,29.67,ESE,112,0.0,0.0,90,0.00,,,0.00,Rainwise IP-100,2013-04-24 06:07:00,
2013-04-24 02:12:00,39.6,38.0,29.66,SSE,157,0.0,1.4,90,0.00,,,0.00,Rainwise IP-100,2013-04-24 06:12:00,
2013-04-24 02:18:00,39.7,38.0,29.66,SSE,157,0.0,0.0,90,0.00,,,0.00,Rainwise IP-100,2013-04-24 06:18:00,
2013-04-24 02:23:00,39.7,37.0,29.66,SSE,157,0.0,0.0,89,0.00,,,0.00,Rainwise IP-100,2013-04-24 06:23:00,
2013-04-24 02:28:00,39.8,37.0,29.67,SSE,157,0.0,0.0,89,0.00,,,0.00,Rainwise IP-100,2013-04-24 06:28:00,
2013-04-24 02:33:00,39.9,37.0,29.66,SSE,157,0.0,0.0,89,0.00,,,0.00,Rainwise IP-100,2013-04-24 06:33:00,
2013-04-24 02:38:00,39.9,37.0,29.66,SSW,202,2.8,3.3,89,0.00,,,0.00,Rainwise IP-100,2013-04-24 06:38:00,
2013-04-24 02:43:00,39.8,37.0,29.66,SSW,202,1.9,3.0,89,0.00,,,0.00,Rainwise IP-100,2013-04-24 06:43:00,
2013-04-24 02:48:00,39.7,37.0,29.66,SSW,202,2.3,2.3,89,0.00,,,0.00,Rainwise IP-100,2013-04-24 06:48:00,
2013-04-24 02:53:00,39.8,37.0,29.66,SSW,202,0.0,2.3,89,0.00,,,0.00,Rainwise IP-100,2013-04-24 06:53:00,
2013-04-24 02:58:00,39.8,37.0,29.66,SSW,202,0.0,0.0,89,0.00,,,0.00,Rainwise IP-100,2013-04-24 06:58:00,
2013-04-24 03:03:00,39.8,37.0,29.66,SSW,202,0.0,0.0,89,0.00,,,0.00,Rainwise IP-100,2013-04-24 07:03:00,
2013-04-24 03:08:00,39.8,37.0,29.65,SSW,202,0.0,0.0,89,0.00,,,0.00,Rainwise IP-100,2013-04-24 07:08:00,
2013-04-24 03:13:00,39.9,37.0,29.65,SSW,202,0.0,0.0,89,0.00,,,0.00,Rainwise IP-100,2013-04-24 07:13:00,
2013-04-24 03:18:00,40.0,37.0,29.65,SSW,202,0.0,0.0,89,0.00,,,0.00,Rainwise IP-100,2013-04-24 07:18:00,
2013-04-24 03:23:00,40.0,37.0,29.65,SSW,202,0.0,0.0,89,0.00,,,0.00,Rainwise IP-100,2013-04-24 07:23:00,
2013-04-24 03:28:00,40.0,37.0,29.65,SSW,202,0.0,0.0,89,0.00,,,0.00,Rainwise IP-100,2013-04-24 07:28:00,
2013-04-24 03:34:00,40.0,37.0,29.65,NW,315,0.0,1.2,89,0.00,,,0.00,Rainwise IP-100,2013-04-24 07:34:00,
2013-04-24 03:39:00,40.0,37.0,29.65,NW,315,1.2,2.6,89,0.00,,,0.00,Rainwise IP-100,2013-04-24 07:39:00,
2013-04-24 03:44:00,39.9,37.0,29.64,NNE,22,3.3,3.3,89,0.00,,,0.00,Rainwise IP-100,2013-04-24 07:44:00,
2013-04-24 03:49:00,39.9,38.0,29.64,NNE,22,3.5,5.8,90,0.00,,,0.00,Rainwise IP-100,2013-04-24 07:49:00,
2013-04-24 03:54:00,39.9,38.0,29.64,NNE,22,1.9,5.4,90,0.00,,,0.00,Rainwise IP-100,2013-04-24 07:54:00,
2013-04-24 03:59:00,40.1,38.0,29.64,North,360,5.8,6.8,90,0.00,,,0.00,Rainwise IP-100,2013-04-24 07:59:00,
2013-04-24 04:04:00,40.0,38.0,29.64,NE,45,2.8,6.5,90,0.00,,,0.00,Rainwise IP-100,2013-04-24 08:04:00,
2013-04-24 04:09:00,39.9,38.0,29.64,NNE,22,4.0,4.9,90,0.00,,,0.00,Rainwise IP-100,2013-04-24 08:09:00,
2013-04-24 04:14:00,39.9,38.0,29.64,NNW,337,3.5,5.1,90,0.00,,,0.00,Rainwise IP-100,2013-04-24 08:14:00,
2013-04-24 04:19:00,39.9,38.0,29.64,NNE,22,1.9,4.9,90,0.00,,,0.00,Rainwise IP-100,2013-04-24 08:19:00,
2013-04-24 04:24:00,39.9,38.0,29.64,NNE,22,1.6,4.7,90,0.00,,,0.00,Rainwise IP-100,2013-04-24 08:24:00,
2013-04-24 04:29:00,40.0,38.0,29.64,NNE,22,1.2,2.1,90,0.00,,,0.00,Rainwise IP-100,2013-04-24 08:29:00,
2013-04-24 04:34:00,40.0,38.0,29.64,NNE,22,1.9,3.3,90,0.00,,,0.00,Rainwise IP-100,2013-04-24 08:34:00,
2013-04-24 04:39:00,39.9,38.0,29.64,NE,45,1.9,2.8,90,0.00,,,0.00,Rainwise IP-100,2013-04-24 08:39:00,
2013-04-24 04:44:00,39.9,38.0,29.64,NE,45,0.0,2.8,90,0.00,,,0.00,Rainwise IP-100,2013-04-24 08:44:00,
2013-04-24 04:50:00,39.9,38.0,29.64,NE,45,2.6,2.8,90,0.00,,,0.00,Rainwise IP-100,2013-04-24 08:50:00,
2013-04-24 04:55:00,39.8,37.0,29.64,NE,45,3.0,3.0,89,0.00,,,0.00,Rainwise IP-100,2013-04-24 08:55:00,
2013-04-24 05:00:00,39.8,37.0,29.64,NNE,22,3.7,3.7,89,0.00,,,0.00,Rainwise IP-100,2013-04-24 09:00:00,
2013-04-24 05:05:00,39.8,37.0,29.64,ENE,67,5.4,5.4,89,0.00,,,0.00,Rainwise IP-100,2013-04-24 09:05:00,
2013-04-24 05:10:00,39.7,37.0,29.63,ENE,67,5.4,6.1,89,0.00,,,0.00,Rainwise IP-100,2013-04-24 09:10:00,
2013-04-24 05:15:00,39.5,37.0,29.63,North,360,3.0,5.4,89,0.00,,,0.00,Rainwise IP-100,2013-04-24 09:15:00,
2013-04-24 05:20:00,39.4,36.0,29.63,NNW,337,5.1,5.8,89,0.00,,,0.00,Rainwise IP-100,2013-04-24 09:20:00,
2013-04-24 05:25:00,39.3,36.0,29.63,NNW,337,5.1,6.1,89,0.00,,,0.00,Rainwise IP-100,2013-04-24 09:25:00,
2013-04-24 05:30:00,39.3,36.0,29.62,NNW,337,6.5,6.8,88,0.00,,,0.00,Rainwise IP-100,2013-04-24 09:30:00,
2013-04-24 05:35:00,39.2,36.0,29.62,NNW,337,3.5,7.0,88,0.00,,,0.00,Rainwise IP-100,2013-04-24 09:35:00,
2013-04-24 05:40:00,39.1,36.0,29.62,NNE,22,4.4,6.5,88,0.00,,,0.00,Rainwise IP-100,2013-04-24 09:40:00,
2013-04-24 05:45:00,39.1,36.0,29.62,NNW,337,4.4,6.1,88,0.00,,,0.00,Rainwise IP-100,2013-04-24 09:45:00,
2013-04-24 05:50:00,39.2,36.0,29.62,NNE,22,4.4,7.0,88,0.00,,,0.00,Rainwise IP-100,2013-04-24 09:50:00,
2013-04-24 05:55:00,39.1,36.0,29.62,NNW,337,2.8,7.2,88,0.00,,,0.00,Rainwise IP-100,2013-04-24 09:55:00,
2013-04-24 06:00:00,39.0,36.0,29.61,North,360,5.4,5.4,88,0.00,,,0.00,Rainwise IP-100,2013-04-24 10:00:00,
2013-04-24 06:06:00,39.1,36.0,29.61,NNW,337,5.4,6.3,88,0.00,,,0.00,Rainwise IP-100,2013-04-24 10:06:00,
2013-04-24 06:11:00,39.0,36.0,29.62,NNW,337,4.4,5.6,88,0.00,,,0.00,Rainwise IP-100,2013-04-24 10:11:00,
2013-04-24 06:16:00,39.0,36.0,29.62,North,360,6.3,7.0,88,0.00,,,0.00,Rainwise IP-100,2013-04-24 10:16:00,
2013-04-24 06:21:00,39.0,36.0,29.62,NNW,337,1.4,7.2,88,0.00,,,0.00,Rainwise IP-100,2013-04-24 10:21:00,
2013-04-24 06:26:00,39.1,36.0,29.62,NNW,337,2.3,6.3,88,0.00,,,0.00,Rainwise IP-100,2013-04-24 10:26:00,
2013-04-24 06:31:00,39.1,36.0,29.63,WNW,292,0.0,5.6,88,0.00,,,0.00,Rainwise IP-100,2013-04-24 10:31:00,
2013-04-24 06:36:00,39.3,36.0,29.63,NNW,337,2.6,6.3,88,0.00,,,0.00,Rainwise IP-100,2013-04-24 10:36:00,
2013-04-24 06:41:00,39.4,36.0,29.63,North,360,0.0,5.1,88,0.00,,,0.00,Rainwise IP-100,2013-04-24 10:41:00,
2013-04-24 06:46:00,39.5,37.0,29.64,North,360,2.6,4.0,88,0.00,,,0.00,Rainwise IP-100,2013-04-24 10:46:00,
2013-04-24 06:51:00,39.7,37.0,29.63,NNE,22,2.8,4.0,88,0.00,,,0.00,Rainwise IP-100,2013-04-24 10:51:00,
2013-04-24 06:56:00,39.8,37.0,29.62,NNE,22,1.4,3.3,88,0.00,,,0.00,Rainwise IP-100,2013-04-24 10:56:00,
2013-04-24 07:01:00,39.9,37.0,29.62,NNE,22,0.0,1.6,88,0.00,,,0.00,Rainwise IP-100,2013-04-24 11:01:00,
2013-04-24 07:06:00,39.9,37.0,29.62,NNE,22,0.0,1.9,88,0.00,,,0.00,Rainwise IP-100,2013-04-24 11:06:00,
2013-04-24 07:11:00,40.0,37.0,29.62,NNE,22,0.0,0.0,88,0.00,,,0.00,Rainwise IP-100,2013-04-24 11:11:00,
2013-04-24 07:16:00,40.1,37.0,29.62,NNE,22,1.4,0.0,87,0.00,,,0.00,Rainwise IP-100,2013-04-24 11:16:00,
2013-04-24 07:22:00,40.3,37.0,29.62,ENE,67,0.0,2.3,87,0.00,,,0.00,Rainwise IP-100,2013-04-24 11:22:00,
2013-04-24 07:27:00,40.5,38.0,29.62,ENE,67,1.2,1.2,87,0.00,,,0.00,Rainwise IP-100,2013-04-24 11:27:00,
2013-04-24 07:32:00,40.6,37.0,29.62,ENE,67,2.3,3.5,86,0.00,,,0.00,Rainwise IP-100,2013-04-24 11:32:00,
2013-04-24 07:37:00,40.4,37.0,29.62,ENE,67,4.0,4.0,86,0.00,,,0.00,Rainwise IP-100,2013-04-24 11:37:00,
2013-04-24 07:42:00,40.2,37.0,29.62,NE,45,1.2,4.2,86,0.00,,,0.00,Rainwise IP-100,2013-04-24 11:42:00,
2013-04-24 07:47:00,40.3,37.0,29.62,NNE,22,0.0,2.8,86,0.00,,,0.00,Rainwise IP-100,2013-04-24 11:47:00,
2013-04-24 07:52:00,40.8,37.0,29.63,NNE,22,1.2,1.4,86,0.00,,,0.00,Rainwise IP-100,2013-04-24 11:52:00,
2013-04-24 07:57:00,40.9,37.0,29.62,NE,45,2.1,3.3,85,0.00,,,0.00,Rainwise IP-100,2013-04-24 11:57:00,
2013-04-24 08:02:00,40.8,37.0,29.62,ENE,67,2.6,3.7,85,0.00,,,0.00,Rainwise IP-100,2013-04-24 12:02:00,
2013-04-24 08:07:00,40.9,37.0,29.62,ENE,67,2.1,3.0,85,0.00,,,0.00,Rainwise IP-100,2013-04-24 12:07:00,
2013-04-24 08:12:00,41.0,37.0,29.62,ENE,67,4.0,4.0,85,0.00,,,0.00,Rainwise IP-100,2013-04-24 12:12:00,
2013-04-24 08:17:00,41.3,37.0,29.62,ENE,67,1.9,4.0,85,0.00,,,0.00,Rainwise IP-100,2013-04-24 12:17:00,
2013-04-24 08:22:00,41.7,38.0,29.61,NNE,22,3.0,3.3,85,0.00,,,0.00,Rainwise IP-100,2013-04-24 12:22:00,
2013-04-24 08:27:00,42.2,38.0,29.61,North,360,2.1,4.9,84,0.00,,,0.00,Rainwise IP-100,2013-04-24 12:27:00,
2013-04-24 08:32:00,42.2,37.0,29.61,ENE,67,2.1,4.9,83,0.00,,,0.00,Rainwise IP-100,2013-04-24 12:32:00,
2013-04-24 08:38:00,42.0,37.0,29.61,ENE,67,2.3,4.2,83,0.00,,,0.00,Rainwise IP-100,2013-04-24 12:38:00,
2013-04-24 08:43:00,42.4,37.0,29.60,ENE,67,4.9,4.9,83,0.00,,,0.00,Rainwise IP-100,2013-04-24 12:43:00,
2013-04-24 08:48:00,42.4,37.0,29.60,ENE,67,4.0,5.4,83,0.00,,,0.00,Rainwise IP-100,2013-04-24 12:48:00,
2013-04-24 08:53:00,42.3,37.0,29.60,NE,45,2.6,6.3,83,0.00,,,0.00,Rainwise IP-100,2013-04-24 12:53:00,
2013-04-24 08:58:00,43.1,39.0,29.59,NE,45,6.5,7.2,84,0.00,,,0.00,Rainwise IP-100,2013-04-24 12:58:00,
2013-04-24 09:03:00,43.3,39.0,29.59,NE,45,6.3,8.4,84,0.00,,,0.00,Rainwise IP-100,2013-04-24 13:03:00,
2013-04-24 09:08:00,43.1,38.0,29.59,ENE,67,5.8,8.4,82,0.00,,,0.00,Rainwise IP-100,2013-04-24 13:08:00,
2013-04-24 09:13:00,43.8,39.0,29.58,ENE,67,5.6,7.9,82,0.00,,,0.00,Rainwise IP-100,2013-04-24 13:13:00,
2013-04-24 09:18:00,44.2,38.0,29.58,ENE,67,4.2,7.9,81,0.00,,,0.00,Rainwise IP-100,2013-04-24 13:18:00,
2013-04-24 09:23:00,44.3,38.0,29.58,ENE,67,6.3,7.5,80,0.00,,,0.00,Rainwise IP-100,2013-04-24 13:23:00,
2013-04-24 09:28:00,44.5,39.0,29.58,ENE,67,4.9,7.0,80,0.00,,,0.00,Rainwise IP-100,2013-04-24 13:28:00,
2013-04-24 09:33:00,44.7,39.0,29.58,ENE,67,3.5,5.6,80,0.00,,,0.00,Rainwise IP-100,2013-04-24 13:33:00,
2013-04-24 09:38:00,45.1,39.0,29.57,ENE,67,3.0,4.9,80,0.00,,,0.00,Rainwise IP-100,2013-04-24 13:38:00,
2013-04-24 09:43:00,45.6,40.0,29.57,ENE,67,3.7,4.7,80,0.00,,,0.00,Rainwise IP-100,2013-04-24 13:43:00,
2013-04-24 09:48:00,45.5,39.0,29.57,ENE,67,4.0,6.3,78,0.00,,,0.00,Rainwise IP-100,2013-04-24 13:48:00,
2013-04-24 09:54:00,45.6,39.0,29.57,ENE,67,3.7,5.4,77,0.00,,,0.00,Rainwise IP-100,2013-04-24 13:54:00,
2013-04-24 09:59:00,46.4,39.0,29.56,ENE,67,3.5,4.9,77,0.00,,,0.00,Rainwise IP-100,2013-04-24 13:59:00,
2013-04-24 10:04:00,47.1,40.0,29.56,ENE,67,4.0,4.2,77,0.00,,,0.00,Rainwise IP-100,2013-04-24 14:04:00,
2013-04-24 10:09:00,47.7,40.0,29.56,NE,45,1.4,7.2,76,0.00,,,0.00,Rainwise IP-100,2013-04-24 14:09:00,
2013-04-24 10:14:00,48.3,41.0,29.55,ENE,67,3.0,4.9,75,0.00,,,0.00,Rainwise IP-100,2013-04-24 14:14:00,
2013-04-24 10:19:00,48.9,41.0,29.54,NNW,337,4.0,5.6,74,0.00,,,0.00,Rainwise IP-100,2013-04-24 14:19:00,
2013-04-24 10:24:00,50.3,42.0,29.54,NE,45,3.3,6.3,72,0.00,,,0.00,Rainwise IP-100,2013-04-24 14:24:00,
2013-04-24 10:29:00,50.1,41.0,29.54,NE,45,3.0,5.6,71,0.00,,,0.00,Rainwise IP-100,2013-04-24 14:29:00,
2013-04-24 10:34:00,49.2,40.0,29.53,ENE,67,3.3,4.7,70,0.00,,,0.00,Rainwise IP-100,2013-04-24 14:34:00,
2013-04-24 10:39:00,49.2,40.0,29.53,NE,45,1.9,5.8,71,0.00,,,0.00,Rainwise IP-100,2013-04-24 14:39:00,
2013-04-24 10:44:00,50.0,40.0,29.53,NNE,22,5.4,6.1,70,0.00,,,0.00,Rainwise IP-100,2013-04-24 14:44:00,
2013-04-24 10:49:00,50.8,41.0,29.53,NE,45,3.3,6.3,69,0.00,,,0.00,Rainwise IP-100,2013-04-24 14:49:00,
2013-04-24 10:54:00,51.4,40.0,29.53,ENE,67,5.1,5.6,67,0.00,,,0.00,Rainwise IP-100,2013-04-24 14:54:00,
2013-04-24 10:59:00,51.6,41.0,29.52,NE,45,4.2,6.1,67,0.00,,,0.00,Rainwise IP-100,2013-04-24 14:59:00,
2013-04-24 11:04:00,51.6,41.0,29.52,NE,45,4.7,6.3,66,0.00,,,0.00,Rainwise IP-100,2013-04-24 15:04:00,
2013-04-24 11:09:00,51.5,41.0,29.52,NNE,22,5.6,6.1,66,0.00,,,0.00,Rainwise IP-100,2013-04-24 15:09:00,
2013-04-24 11:14:00,51.9,41.0,29.51,NNE,22,4.0,7.0,66,0.00,,,0.00,Rainwise IP-100,2013-04-24 15:14:00,
2013-04-24 11:19:00,53.0,41.0,29.51,NNE,22,3.3,5.8,65,0.00,,,0.00,Rainwise IP-100,2013-04-24 15:19:00,
2013-04-24 11:24:00,53.7,41.0,29.51,ENE,67,4.2,6.1,64,0.00,,,0.00,Rainwise IP-100,2013-04-24 15:24:00,
2013-04-24 11:30:00,54.1,41.0,29.51,SE,135,2.6,6.5,63,0.00,,,0.00,Rainwise IP-100,2013-04-24 15:30:00,
2013-04-24 11:35:00,54.7,42.0,29.50,East,90,3.5,6.8,62,0.00,,,0.00,Rainwise IP-100,2013-04-24 15:35:00,
2013-04-24 11:40:00,55.6,43.0,29.49,NNW,337,1.4,5.4,62,0.00,,,0.00,Rainwise IP-100,2013-04-24 15:40:00,
2013-04-24 11:45:00,57.0,44.0,29.49,SSE,157,4.2,4.2,62,0.00,,,0.00,Rainwise IP-100,2013-04-24 15:45:00,
2013-04-24 11:50:00,58.3,45.0,29.49,SSW,202,3.5,5.4,61,0.00,,,0.00,Rainwise IP-100,2013-04-24 15:50:00,
2013-04-24 11:55:00,59.1,45.0,29.49,East,90,2.1,5.6,60,0.00,,,0.00,Rainwise IP-100,2013-04-24 15:55:00,
2013-04-24 12:00:00,59.3,45.0,29.48,SSE,157,3.5,7.7,58,0.00,,,0.00,Rainwise IP-100,2013-04-24 16:00:00,
2013-04-24 12:05:00,59.7,44.0,29.47,SSE,157,5.8,6.8,56,0.00,,,0.00,Rainwise IP-100,2013-04-24 16:05:00,
2013-04-24 12:10:00,60.0,44.0,29.47,SSE,157,3.5,6.3,55,0.00,,,0.00,Rainwise IP-100,2013-04-24 16:10:00,
2013-04-24 12:15:00,60.3,44.0,29.47,SW,225,2.6,4.9,54,0.00,,,0.00,Rainwise IP-100,2013-04-24 16:15:00,
2013-04-24 12:20:00,61.2,44.0,29.46,ESE,112,3.7,5.8,54,0.00,,,0.00,Rainwise IP-100,2013-04-24 16:20:00,
2013-04-24 12:25:00,61.7,44.0,29.46,SE,135,1.2,4.9,53,0.00,,,0.00,Rainwise IP-100,2013-04-24 16:25:00,
2013-04-24 12:30:00,62.2,45.0,29.46,WSW,247,1.4,5.4,53,0.00,,,0.00,Rainwise IP-100,2013-04-24 16:30:00,
2013-04-24 12:35:00,62.7,44.0,29.45,SSW,202,5.4,7.9,51,0.00,,,0.00,Rainwise IP-100,2013-04-24 16:35:00,
2013-04-24 12:40:00,62.5,43.0,29.45,SSE,157,3.5,10.3,49,0.00,,,0.00,Rainwise IP-100,2013-04-24 16:40:00,
2013-04-24 12:46:00,62.1,42.0,29.45,South,180,5.4,11.0,48,0.00,,,0.00,Rainwise IP-100,2013-04-24 16:46:00,
2013-04-24 12:51:00,62.5,43.0,29.43,SSE,157,2.3,5.8,49,0.00,,,0.00,Rainwise IP-100,2013-04-24 16:51:00,
2013-04-24 12:56:00,63.0,43.0,29.43,SSE,157,3.0,8.2,48,0.00,,,0.00,Rainwise IP-100,2013-04-24 16:56:00,
2013-04-24 13:01:00,63.4,43.0,29.43,SSW,202,5.6,7.9,47,0.00,,,0.00,Rainwise IP-100,2013-04-24 17:01:00,
2013-04-24 13:06:00,63.9,42.0,29.42,SSE,157,6.1,9.6,45,0.00,,,0.00,Rainwise IP-100,2013-04-24 17:06:00,
2013-04-24 13:11:00,64.2,42.0,29.41,South,180,2.1,7.5,45,0.00,,,0.00,Rainwise IP-100,2013-04-24 17:11:00,
2013-04-24 13:16:00,64.4,42.0,29.41,SW,225,6.8,8.6,44,0.00,,,0.00,Rainwise IP-100,2013-04-24 17:16:00,
2013-04-24 13:21:00,64.6,42.0,29.40,ESE,112,2.8,8.2,44,0.00,,,0.00,Rainwise IP-100,2013-04-24 17:21:00,
2013-04-24 13:26:00,65.2,42.0,29.40,ENE,67,1.2,7.0,44,0.00,,,0.00,Rainwise IP-100,2013-04-24 17:26:00,
2013-04-24 13:31:00,66.2,44.0,29.39,SSE,157,0.0,6.5,44,0.00,,,0.00,Rainwise IP-100,2013-04-24 17:31:00,
2013-04-24 13:36:00,66.9,44.0,29.39,ESE,112,3.0,6.1,43,0.00,,,0.00,Rainwise IP-100,2013-04-24 17:36:00,
2013-04-24 13:41:00,67.2,43.0,29.39,SW,225,5.4,5.4,42,0.00,,,0.00,Rainwise IP-100,2013-04-24 17:41:00,
2013-04-24 13:46:00,67.5,43.0,29.38,SSE,157,2.8,7.0,41,0.00,,,0.00,Rainwise IP-100,2013-04-24 17:46:00,
2013-04-24 13:51:00,67.9,43.0,29.38,SE,135,2.3,5.6,41,0.00,,,0.00,Rainwise IP-100,2013-04-24 17:51:00,
2013-04-24 13:56:00,68.8,43.0,29.38,WSW,247,3.7,4.9,40,0.00,,,0.00,Rainwise IP-100,2013-04-24 17:56:00,
2013-04-24 14:02:00,69.3,43.0,29.37,SW,225,4.4,6.8,39,0.00,,,0.00,Rainwise IP-100,2013-04-24 18:02:00,
2013-04-24 14:07:00,69.1,41.0,29.37,SSE,157,7.2,12.1,37,0.00,,,0.00,Rainwise IP-100,2013-04-24 18:07:00,
2013-04-24 14:12:00,68.7,40.0,29.37,South,180,6.5,11.2,36,0.00,,,0.00,Rainwise IP-100,2013-04-24 18:12:00,
2013-04-24 14:17:00,68.6,40.0,29.36,ESE,112,6.8,10.7,35,0.00,,,0.00,Rainwise IP-100,2013-04-24 18:17:00,
2013-04-24 14:22:00,68.9,40.0,29.35,SSW,202,6.3,9.8,35,0.00,,,0.00,Rainwise IP-100,2013-04-24 18:22:00,
2013-04-24 14:27:00,69.2,39.0,29.35,SSE,157,4.2,10.5,34,0.00,,,0.00,Rainwise IP-100,2013-04-24 18:27:00,
2013-04-24 14:32:00,69.5,39.0,29.35,WSW,247,2.8,10.3,33,0.00,,,0.00,Rainwise IP-100,2013-04-24 18:32:00,
2013-04-24 14:37:00,70.4,40.0,29.34,WSW,247,4.0,4.4,33,0.00,,,0.00,Rainwise IP-100,2013-04-24 18:37:00,
2013-04-24 14:42:00,71.5,41.0,29.34,SSW,202,0.0,8.6,33,0.00,,,0.00,Rainwise IP-100,2013-04-24 18:42:00,
2013-04-24 14:47:00,71.9,40.0,29.34,SSW,202,3.7,7.9,32,0.00,,,0.00,Rainwise IP-100,2013-04-24 18:47:00,
2013-04-24 14:52:00,71.9,39.0,29.34,SSE,157,8.2,9.6,31,0.00,,,0.00,Rainwise IP-100,2013-04-24 18:52:00,
2013-04-24 14:57:00,71.6,38.0,29.33,SSW,202,7.5,11.4,30,0.00,,,0.00,Rainwise IP-100,2013-04-24 18:57:00,
2013-04-24 15:02:00,71.8,38.0,29.33,SSW,202,5.4,8.6,29,0.00,,,0.00,Rainwise IP-100,2013-04-24 19:02:00,
2013-04-24 15:07:00,72.6,38.0,29.33,SSW,202,1.4,7.2,29,0.00,,,0.00,Rainwise IP-100,2013-04-24 19:07:00,
2013-04-24 15:12:00,72.8,38.0,29.33,SSW,202,4.2,9.8,29,0.00,,,0.00,Rainwise IP-100,2013-04-24 19:12:00,
2013-04-24 15:18:00,72.6,38.0,29.33,SSE,157,6.8,12.4,28,0.00,,,0.00,Rainwise IP-100,2013-04-24 19:18:00,
2013-04-24 15:23:00,72.5,38.0,29.33,SSE,157,3.5,9.3,29,0.00,,,0.00,Rainwise IP-100,2013-04-24 19:23:00,
2013-04-24 15:28:00,72.4,39.0,29.33,SW,225,6.1,11.2,30,0.00,,,0.00,Rainwise IP-100,2013-04-24 19:28:00,
2013-04-24 15:33:00,72.5,40.0,29.33,SSE,157,3.0,10.0,31,0.00,,,0.00,Rainwise IP-100,2013-04-24 19:33:00,
2013-04-24 15:38:00,72.6,40.0,29.32,SSE,157,7.2,13.1,31,0.00,,,0.00,Rainwise IP-100,2013-04-24 19:38:00,
2013-04-24 15:43:00,72.9,40.0,29.32,SW,225,5.4,12.8,31,0.00,,,0.00,Rainwise IP-100,2013-04-24 19:43:00,
2013-04-24 15:48:00,73.3,41.0,29.32,SSE,157,4.9,8.6,31,0.00,,,0.00,Rainwise IP-100,2013-04-24 19:48:00,
2013-04-24 15:53:00,73.5,41.0,29.31,SSW,202,7.2,10.3,31,0.00,,,0.00,Rainwise IP-100,2013-04-24 19:53:00,
2013-04-24 15:58:00,73.6,39.0,29.31,SSW,202,5.8,11.2,29,0.00,,,0.00,Rainwise IP-100,2013-04-24 19:58:00,
2013-04-24 16:03:00,73.6,39.0,29.31,SW,225,3.3,11.4,28,0.00,,,0.00,Rainwise IP-100,2013-04-24 20:03:00,
2013-04-24 16:08:00,73.8,38.0,29.31,SW,225,4.4,13.5,27,0.00,,,0.00,Rainwise IP-100,2013-04-24 20:08:00,
2013-04-24 16:13:00,73.9,37.0,29.31,SSW,202,8.4,13.3,26,0.00,,,0.00,Rainwise IP-100,2013-04-24 20:13:00,
2013-04-24 16:18:00,73.8,37.0,29.31,South,180,8.9,14.2,26,0.00,,,0.00,Rainwise IP-100,2013-04-24 20:18:00,
2013-04-24 16:23:00,73.7,38.0,29.31,SW,225,4.9,14.9,27,0.00,,,0.00,Rainwise IP-100,2013-04-24 20:23:00,
2013-04-24 16:28:00,73.9,38.0,29.30,SSE,157,5.8,10.7,27,0.00,,,0.00,Rainwise IP-100,2013-04-24 20:28:00,
2013-04-24 16:34:00,74.4,39.0,29.31,SSE,157,6.1,9.1,28,0.00,,,0.00,Rainwise IP-100,2013-04-24 20:34:00,
2013-04-24 16:39:00,74.3,39.0,29.30,SSE,157,4.2,10.7,28,0.00,,,0.00,Rainwise IP-100,2013-04-24 20:39:00,
2013-04-24 16:44:00,74.3,40.0,29.29,SSE,157,8.4,12.1,29,0.00,,,0.00,Rainwise IP-100,2013-04-24 20:44:00,
2013-04-24 16:49:00,74.6,40.0,29.30,SSW,202,7.0,11.2,29,0.00,,,0.00,Rainwise IP-100,2013-04-24 20:49:00,
2013-04-24 16:54:00,74.7,40.0,29.30,SSW,202,5.1,11.7,29,0.00,,,0.00,Rainwise IP-100,2013-04-24 20:54:00,
2013-04-24 16:59:00,74.7,40.0,29.30,SSE,157,3.0,12.8,29,0.00,,,0.00,Rainwise IP-100,2013-04-24 20:59:00,
2013-04-24 17:04:00,74.7,40.0,29.29,SSE,157,2.6,10.3,29,0.00,,,0.00,Rainwise IP-100,2013-04-24 21:04:00,
2013-04-24 17:09:00,74.4,41.0,29.29,SSW,202,8.2,14.9,30,0.00,,,0.00,Rainwise IP-100,2013-04-24 21:09:00,
2013-04-24 17:14:00,74.3,41.0,29.29,South,180,9.8,12.1,30,0.00,,,0.00,Rainwise IP-100,2013-04-24 21:14:00,
2013-04-24 17:19:00,74.3,41.0,29.29,SSW,202,10.7,13.5,30,0.00,,,0.00,Rainwise IP-100,2013-04-24 21:19:00,
2013-04-24 17:24:00,74.0,41.0,29.29,SSE,157,10.3,15.4,30,0.00,,,0.00,Rainwise IP-100,2013-04-24 21:24:00,
2013-04-24 17:29:00,73.9,41.0,29.29,SSW,202,7.5,13.1,30,0.00,,,0.00,Rainwise IP-100,2013-04-24 21:29:00,
2013-04-24 17:34:00,73.6,40.0,29.30,SSW,202,5.4,12.4,30,0.00,,,0.00,Rainwise IP-100,2013-04-24 21:34:00,
2013-04-24 17:39:00,73.0,40.0,29.30,South,180,5.6,10.7,30,0.00,,,0.00,Rainwise IP-100,2013-04-24 21:39:00,
2013-04-24 17:44:00,72.7,39.0,29.30,WSW,247,4.2,9.3,30,0.00,,,0.00,Rainwise IP-100,2013-04-24 21:44:00,
2013-04-24 17:45:00,72.7,39.0,29.30,SSE,157,4.0,9.3,30,0.00,,,0.00,Rainwise IP-100,2013-04-24 21:45:00,
2013-04-24 17:50:00,72.6,40.0,29.29,SSW,202,6.1,9.8,31,0.00,,,0.00,Rainwise IP-100,2013-04-24 21:50:00,
2013-04-24 17:55:00,72.6,40.0,29.28,SSW,202,7.5,8.4,31,0.00,,,0.00,Rainwise IP-100,2013-04-24 21:55:00,
2013-04-24 18:00:00,72.8,40.0,29.28,SSW,202,7.7,12.1,31,0.00,,,0.00,Rainwise IP-100,2013-04-24 22:00:00,
2013-04-24 18:05:00,72.9,40.0,29.29,SSE,157,6.8,10.7,31,0.00,,,0.00,Rainwise IP-100,2013-04-24 22:05:00,
2013-04-24 18:10:00,72.8,40.0,29.29,SSW,202,6.5,13.1,31,0.00,,,0.00,Rainwise IP-100,2013-04-24 22:10:00,
2013-04-24 18:15:00,72.7,41.0,29.29,SSW,202,9.1,10.7,32,0.00,,,0.00,Rainwise IP-100,2013-04-24 22:15:00,
2013-04-24 18:20:00,72.6,41.0,29.29,SSW,202,3.3,11.7,32,0.00,,,0.00,Rainwise IP-100,2013-04-24 22:20:00,
2013-04-24 18:25:00,72.5,41.0,29.29,SSW,202,2.6,8.4,32,0.00,,,0.00,Rainwise IP-100,2013-04-24 22:25:00,
2013-04-24 18:30:00,72.1,40.0,29.29,SSW,202,6.3,8.9,32,0.00,,,0.00,Rainwise IP-100,2013-04-24 22:30:00,
2013-04-24 18:36:00,71.8,41.0,29.29,SW,225,8.6,12.6,33,0.00,,,0.00,Rainwise IP-100,2013-04-24 22:36:00,
2013-04-24 18:41:00,71.7,41.0,29.29,SSW,202,7.7,13.3,33,0.00,,,0.00,Rainwise IP-100,2013-04-24 22:41:00,
2013-04-24 18:46:00,71.7,41.0,29.29,SW,225,4.2,11.7,33,0.00,,,0.00,Rainwise IP-100,2013-04-24 22:46:00,
2013-04-24 18:51:00,71.6,41.0,29.29,SW,225,3.5,8.6,33,0.00,,,0.00,Rainwise IP-100,2013-04-24 22:51:00,
2013-04-24 18:56:00,71.4,40.0,29.29,SSW,202,4.4,4.9,33,0.00,,,0.00,Rainwise IP-100,2013-04-24 22:56:00,
2013-04-24 19:01:00,71.1,40.0,29.28,SSW,202,4.4,5.8,33,0.00,,,0.00,Rainwise IP-100,2013-04-24 23:01:00,
2013-04-24 19:06:00,70.9,41.0,29.29,SSW,202,4.0,4.7,34,0.00,,,0.00,Rainwise IP-100,2013-04-24 23:06:00,
2013-04-24 19:11:00,70.6,41.0,29.28,SSW,202,1.6,4.4,34,0.00,,,0.00,Rainwise IP-100,2013-04-24 23:11:00,
2013-04-24 19:16:00,70.3,41.0,29.29,SW,225,1.4,3.5,35,0.00,,,0.00,Rainwise IP-100,2013-04-24 23:16:00,
2013-04-24 19:21:00,70.1,41.0,29.29,SSW,202,3.3,3.3,35,0.00,,,0.00,Rainwise IP-100,2013-04-24 23:21:00,
2013-04-24 19:26:00,69.9,42.0,29.29,SSW,202,3.5,4.2,36,0.00,,,0.00,Rainwise IP-100,2013-04-24 23:26:00,
2013-04-24 19:31:00,69.8,41.0,29.29,SSW,202,0.0,7.5,36,0.00,,,0.00,Rainwise IP-100,2013-04-24 23:31:00,
2013-04-24 19:36:00,69.8,41.0,29.30,SSW,202,3.0,4.4,36,0.00,,,0.00,Rainwise IP-100,2013-04-24 23:36:00,
2013-04-24 19:41:00,69.6,42.0,29.29,SSW,202,4.7,6.5,37,0.00,,,0.00,Rainwise IP-100,2013-04-24 23:41:00,
2013-04-24 19:46:00,69.5,42.0,29.29,SSW,202,3.3,7.7,37,0.00,,,0.00,Rainwise IP-100,2013-04-24 23:46:00,
2013-04-24 19:52:00,69.4,42.0,29.29,SSW,202,3.3,8.9,37,0.00,,,0.00,Rainwise IP-100,2013-04-24 23:52:00,
2013-04-24 19:57:00,69.3,42.0,29.29,SSE,157,2.6,7.7,37,0.00,,,0.00,Rainwise IP-100,2013-04-24 23:57:00,
2013-04-24 20:02:00,69.3,42.0,29.29,SSW,202,4.2,11.0,37,0.00,,,0.00,Rainwise IP-100,2013-04-25 00:02:00,
2013-04-24 20:07:00,69.1,41.0,29.29,SSE,157,2.8,6.8,37,0.00,,,0.00,Rainwise IP-100,2013-04-25 00:07:00,
2013-04-24 20:12:00,68.8,42.0,29.28,SW,225,2.1,4.4,38,0.00,,,0.00,Rainwise IP-100,2013-04-25 00:12:00,
2013-04-24 20:17:00,68.5,42.0,29.28,SSW,202,2.3,3.7,38,0.00,,,0.00,Rainwise IP-100,2013-04-25 00:17:00,
2013-04-24 20:22:00,68.2,41.0,29.28,South,180,1.6,3.3,38,0.00,,,0.00,Rainwise IP-100,2013-04-25 00:22:00,
2013-04-24 20:27:00,67.9,42.0,29.28,SSW,202,1.9,3.5,39,0.00,,,0.00,Rainwise IP-100,2013-04-25 00:27:00,
2013-04-24 20:32:00,67.6,42.0,29.28,South,180,1.6,3.5,39,0.00,,,0.00,Rainwise IP-100,2013-04-25 00:32:00,
2013-04-24 20:37:00,67.3,42.0,29.29,SSW,202,2.6,5.1,40,0.00,,,0.00,Rainwise IP-100,2013-04-25 00:37:00,
2013-04-24 20:42:00,67.0,42.0,29.28,SSW,202,2.8,5.4,40,0.00,,,0.00,Rainwise IP-100,2013-04-25 00:42:00,
2013-04-24 20:47:00,66.6,42.0,29.29,SSW,202,3.7,4.4,41,0.00,,,0.00,Rainwise IP-100,2013-04-25 00:47:00,
2013-04-24 20:52:00,66.4,42.0,29.29,SSW,202,3.5,6.5,41,0.00,,,0.00,Rainwise IP-100,2013-04-25 00:52:00,
2013-04-24 20:57:00,66.3,42.0,29.29,SSW,202,2.1,4.9,41,0.00,,,0.00,Rainwise IP-100,2013-04-25 00:57:00,
2013-04-24 21:02:00,66.2,42.0,29.29,SSW,202,3.3,9.6,41,0.00,,,0.00,Rainwise IP-100,2013-04-25 01:02:00,
2013-04-24 21:08:00,66.0,42.0,29.29,SSW,202,2.8,5.1,42,0.00,,,0.00,Rainwise IP-100,2013-04-25 01:08:00,
2013-04-24 21:13:00,65.8,42.0,29.29,WSW,247,3.5,5.6,42,0.00,,,0.00,Rainwise IP-100,2013-04-25 01:13:00,
2013-04-24 21:18:00,65.8,42.0,29.29,South,180,3.7,6.3,42,0.00,,,0.00,Rainwise IP-100,2013-04-25 01:18:00,
2013-04-24 21:23:00,65.7,42.0,29.29,SSW,202,3.5,6.8,43,0.00,,,0.00,Rainwise IP-100,2013-04-25 01:23:00,
2013-04-24 21:28:00,65.5,42.0,29.30,SSW,202,3.5,7.2,43,0.00,,,0.00,Rainwise IP-100,2013-04-25 01:28:00,
2013-04-24 21:33:00,65.5,42.0,29.30,SSW,202,6.3,6.3,43,0.00,,,0.00,Rainwise IP-100,2013-04-25 01:33:00,
2013-04-24 21:38:00,65.6,43.0,29.31,SSW,202,5.8,11.2,44,0.00,,,0.00,Rainwise IP-100,2013-04-25 01:38:00,
2013-04-24 21:43:00,65.9,43.0,29.31,SSW,202,7.5,11.2,44,0.00,,,0.00,Rainwise IP-100,2013-04-25 01:43:00,
2013-04-24 21:48:00,65.9,43.0,29.30,SSW,202,2.8,7.9,44,0.00,,,0.00,Rainwise IP-100,2013-04-25 01:48:00,
2013-04-24 21:53:00,65.8,43.0,29.30,SSW,202,10.7,11.4,44,0.00,,,0.00,Rainwise IP-100,2013-04-25 01:53:00,
2013-04-24 21:58:00,65.8,44.0,29.30,SSW,202,5.4,14.0,45,0.00,,,0.00,Rainwise IP-100,2013-04-25 01:58:00,
2013-04-24 22:03:00,65.7,43.0,29.30,SW,225,10.5,19.1,45,0.00,,,0.00,Rainwise IP-100,2013-04-25 02:03:00,
2013-04-24 22:08:00,65.7,44.0,29.30,SSW,202,12.4,21.7,46,0.00,,,0.00,Rainwise IP-100,2013-04-25 02:08:00,
2013-04-24 22:13:00,65.6,44.0,29.30,SSW,202,20.5,23.6,46,0.00,,,0.00,Rainwise IP-100,2013-04-25 02:13:00,
2013-04-24 22:18:00,65.4,45.0,29.29,South,180,15.4,23.8,47,0.00,,,0.00,Rainwise IP-100,2013-04-25 02:18:00,
2013-04-24 22:24:00,65.1,45.0,29.30,SSW,202,9.8,23.8,48,0.00,,,0.00,Rainwise IP-100,2013-04-25 02:24:00,
2013-04-24 22:29:00,64.8,45.0,29.29,SSW,202,7.7,17.3,49,0.00,,,0.00,Rainwise IP-100,2013-04-25 02:29:00,
2013-04-24 22:34:00,64.4,45.0,29.29,SW,225,0.0,16.8,49,0.00,,,0.00,Rainwise IP-100,2013-04-25 02:34:00,
2013-04-24 22:39:00,64.1,45.0,29.28,SSW,202,7.7,15.9,50,0.00,,,0.00,Rainwise IP-100,2013-04-25 02:39:00,
2013-04-24 22:44:00,64.0,45.0,29.30,SW,225,10.5,16.8,50,0.00,,,0.00,Rainwise IP-100,2013-04-25 02:44:00,
2013-04-24 22:49:00,64.0,46.0,29.30,WSW,247,7.0,19.1,51,0.00,,,0.00,Rainwise IP-100,2013-04-25 02:49:00,
2013-04-24 22:54:00,63.9,46.0,29.28,SW,225,12.6,18.2,51,0.00,,,0.00,Rainwise IP-100,2013-04-25 02:54:00,
2013-04-24 22:59:00,63.7,45.0,29.29,SSW,202,14.2,14.2,51,0.00,,,0.00,Rainwise IP-100,2013-04-25 02:59:00,
2013-04-24 23:04:00,63.4,46.0,29.28,South,180,13.3,14.7,52,0.00,,,0.00,Rainwise IP-100,2013-04-25 03:04:00,
2013-04-24 23:09:00,63.1,45.0,29.28,SSE,157,9.1,18.0,52,0.00,,,0.00,Rainwise IP-100,2013-04-25 03:09:00,
2013-04-24 23:14:00,63.0,46.0,29.28,SW,225,2.1,16.3,53,0.00,,,0.00,Rainwise IP-100,2013-04-25 03:14:00,
2013-04-24 23:19:00,62.8,46.0,29.29,SSW,202,10.7,16.3,53,0.00,,,0.00,Rainwise IP-100,2013-04-25 03:19:00,
2013-04-24 23:24:00,62.6,46.0,29.29,SSW,202,11.9,14.0,54,0.00,,,0.00,Rainwise IP-100,2013-04-25 03:24:00,
2013-04-24 23:29:00,62.5,46.0,29.30,SSW,202,13.1,17.7,54,0.00,,,0.00,Rainwise IP-100,2013-04-25 03:29:00,
2013-04-24 23:34:00,62.2,46.0,29.30,SSW,202,7.7,24.9,55,0.00,,,0.00,Rainwise IP-100,2013-04-25 03:34:00,
2013-04-24 23:40:00,61.8,46.0,29.29,SSE,157,7.5,18.0,55,0.00,,,0.00,Rainwise IP-100,2013-04-25 03:40:00,
2013-04-24 23:45:00,61.5,46.0,29.30,SSW,202,14.0,24.0,56,0.00,,,0.00,Rainwise IP-100,2013-04-25 03:45:00,
2013-04-24 23:50:00,61.2,46.0,29.29,SSW,202,5.6,19.1,57,0.00,,,0.00,Rainwise IP-100,2013-04-25 03:50:00,
2013-04-24 23:55:00,60.9,46.0,29.28,SSW,202,9.6,17.7,57,0.00,,,0.00,Rainwise IP-100,2013-04-25 03:55:00,